sat.trackr.live / text

‹ back to catalog

STARLINK-36937

NORAD 68113 · 2026-044N

PAYLOAD ACTIVE UNKNOWN

§ Identity

Operator
Country
US
Launch date
2026-03-08
Launch site
AFWTR
Launch vehicle
Mass (kg)
RCS (m²)

Purposes: comms

External: N2YO · Heavens-Above · Gunter

§ Orbital elements

Epoch: 2026-05-25T03:56:02.853024Z

Period
93.91 min
Inclination
97.2838°
Eccentricity
0.0001872
Mean motion
15.33457808 rev/d
Perigee alt
464.2 km
Apogee alt
466.8 km
Semi-major
6,843.6 km
B*
5.2861e-4
RAAN
105.8031°
Arg perigee
88.1232°
Mean anomaly
272.0225°
Rev number
1,330

§ Raw data

STARLINK-369371 68113U 26044N   26145.16392191  .00017036  00000+0  52861-3 0  99962 68113  97.2838 105.8031 0001872  88.1232 272.0225 15.33457808 13309

JSON: /api/v1/satellites/68113 · /tle

For live sub-satellite position, see the globe view (requires WebGL).

§ Visibility from observer

Set your observer location to see the next 7 days of passes ≥ 10°. The values pass through the URL so the page stays shareable.

No JS? Fill the form by hand. The geolocation button needs JavaScript.